TimeCST,TemperatureF,Dew PointF,Humidity,Sea Level PressureIn,VisibilityMPH,Wind Direction,Wind SpeedMPH,Gust SpeedMPH,PrecipitationIn,Events,Conditions,WindDirDegrees,DateUTC
12:51 AM,46.9,35.1,63,30.09,10.0,South,6.9,-,N/A,,Clear,180,2013-02-15 06:51:00
1:51 AM,48.9,35.1,59,30.10,10.0,SSE,6.9,-,N/A,,Clear,150,2013-02-15 07:51:00
2:51 AM,45.0,35.1,68,30.10,10.0,SSW,6.9,-,N/A,,Clear,210,2013-02-15 08:51:00
3:51 AM,42.1,36.0,79,30.12,10.0,North,3.5,-,N/A,,Clear,360,2013-02-15 09:51:00
4:51 AM,46.0,37.0,71,30.17,10.0,NNW,9.2,-,N/A,,Overcast,340,2013-02-15 10:51:00
5:51 AM,50.0,37.0,61,30.21,10.0,NE,12.7,-,N/A,,Overcast,40,2013-02-15 11:51:00
6:51 AM,48.0,36.0,63,30.24,10.0,NNE,8.1,-,N/A,,Overcast,30,2013-02-15 12:51:00
7:51 AM,48.9,35.1,59,30.26,10.0,NE,12.7,-,N/A,,Overcast,40,2013-02-15 13:51:00
8:51 AM,51.1,35.1,54,30.29,10.0,NE,18.4,28.8,N/A,,Partly Cloudy,40,2013-02-15 14:51:00
9:51 AM,52.0,36.0,54,30.31,10.0,NE,19.6,-,N/A,,Partly Cloudy,40,2013-02-15 15:51:00
10:51 AM,52.0,37.0,57,30.32,10.0,NNE,23.0,28.8,N/A,,Overcast,30,2013-02-15 16:51:00
11:51 AM,52.0,36.0,54,30.32,10.0,North,16.1,-,N/A,,Overcast,10,2013-02-15 17:51:00
12:51 PM,53.1,35.1,50,30.31,10.0,NE,18.4,24.2,N/A,,Overcast,40,2013-02-15 18:51:00
1:51 PM,53.1,34.0,48,30.29,10.0,NNE,17.3,23.0,N/A,,Overcast,30,2013-02-15 19:51:00
2:51 PM,53.1,34.0,48,30.28,10.0,NNE,17.3,24.2,N/A,,Overcast,30,2013-02-15 20:51:00
3:51 PM,50.0,28.9,44,30.29,10.0,North,17.3,-,N/A,,Overcast,10,2013-02-15 21:51:00
4:51 PM,48.0,27.0,44,30.31,10.0,North,12.7,-,N/A,,Overcast,360,2013-02-15 22:51:00
5:51 PM,46.9,24.1,41,30.32,10.0,North,10.4,-,N/A,,Overcast,10,2013-02-15 23:51:00
6:51 PM,45.0,27.0,49,30.33,10.0,NNW,4.6,-,N/A,,Overcast,330,2013-02-16 00:51:00
7:51 PM,46.0,26.1,46,30.35,10.0,NNW,5.8,-,N/A,,Overcast,340,2013-02-16 01:51:00
8:51 PM,46.0,25.0,44,30.38,10.0,North,9.2,-,N/A,,Overcast,350,2013-02-16 02:51:00
9:51 PM,44.1,23.0,43,30.39,10.0,NNW,8.1,-,N/A,,Clear,340,2013-02-16 03:51:00
10:51 PM,42.1,21.9,45,30.40,10.0,NNW,6.9,-,N/A,,Clear,330,2013-02-16 04:51:00
11:51 PM,36.0,23.0,59,30.39,10.0,West,5.8,-,N/A,,Clear,280,2013-02-16 05:51:00